• Join FlightAware (Why Join?)
  • Login
  • US Flag 
07:15AM EST


 

Airport Tracker/Info


-or-


 

Live Flight TrackerFlight Track Log ✈ UAL252 ✈ 26-Apr-2013 ✈ KSNA - KDEN

Flight Track Log - Related Links

Times and Time Zones

All times are in EDT time to prevent confusion due to time zone crossing. See the UAL252 flight status page for this flight to view local times or setup timezone preferences in your user account.

Time Position Orientation Groundspeed Altitude Reporting Facility
EDT Latitude Longitude Course Direction KTS MPH feet Rate Location/Type
07:00PM 33.6331 -117.8894 90° East 130 150 2,300  Level Los Angeles Center
07:01PM 33.5942 -117.8961 188° South 136 157 3,900 1,403 Climbing Los Angeles Center
07:02PM 33.5478 -117.8633 150° Southeast 217 250 5,200 2,274 Climbing Los Angeles Center
07:03PM 33.5383 -117.5424 66° East  Level FlightAware Approximate
07:03PM 33.5578 -117.7736 82° East 271 312 8,600  Level Los Angeles Center
07:04PM 33.5833 -117.4141 90° East  Level FlightAware Approximate
07:05PM 33.5833 -117.2746 90° East  Level FlightAware Approximate
07:05PM 33.5667 -117.6806 83° East 281 323 11,400  Level Los Angeles Center
07:06PM 33.5833 -117.1352 90° East  Level FlightAware Approximate
07:06PM 33.5761 -117.5711 84° East 322 371 13,300  Level Los Angeles Center
07:07PM 33.5853 -117.4283 86° East 355 409 16,300 2,419 Climbing Los Angeles Center
07:08PM 33.5903 -117.3006 87° East 380 437 18,300 2,081 Climbing Los Angeles Center
07:09PM 33.5939 -117.1686 88° East 397 457 20,600 2,032 Climbing Los Angeles Center
07:10PM 33.6000 -117.0333 87° East 406 467 22,500 1,680 Climbing Los Angeles Center
07:11PM 33.6044 -116.8933 88° East 420 483 24,100 1,584 Climbing Los Angeles Center
07:12PM 33.6108 -116.7397 87° East 434 499 25,800 1,355 Climbing Los Angeles Center
07:13PM 33.6156 -116.5914 88° East 442 509 26,900 581 Climbing Los Angeles Center
07:14PM 33.6200 -116.4083 88° East 454 522 27,000 339 Climbing Los Angeles Center
07:15PM 33.6681 -116.2722 67° East 449 517 27,600 919 Climbing Los Angeles Center
07:16PM 33.7439 -116.1489 53° Northeast 455 524 28,900 919 Climbing Los Angeles Center
07:17PM 33.8214 -116.0256 53° Northeast 460 529 29,500 919 Climbing Los Angeles Center
07:18PM 33.8978 -115.8994 54° Northeast 465 535 30,800 1,645 Climbing Los Angeles Center
07:19PM 33.9658 -115.7653 59° Northeast 469 540 32,900 1,839 Climbing Los Angeles Center
07:20PM 34.0467 -115.6136 57° Northeast 454 522 34,600 1,113 Climbing Los Angeles Center
07:21PM 34.1139 -115.4864 57° Northeast 449 517 35,200 672 Climbing Los Angeles Center
07:22PM 34.1822 -115.3592 57° Northeast 450 518 36,000 768 Climbing Los Angeles Center
07:23PM 34.2503 -115.2281 58° Northeast 459 528 36,800 677 Climbing Los Angeles Center
07:24PM 34.3192 -115.0942 58° Northeast 466 536 37,400 581 Climbing Los Angeles Center
07:25PM 34.3886 -114.9600 58° Northeast 470 541 38,000 677 Climbing Los Angeles Center
07:26PM 34.4739 -114.7964 58° Northeast 479 551 38,800 441 Climbing Los Angeles Center
07:27PM 34.5578 -114.6336 58° Northeast 476 548 39,000 44 Climbing Los Angeles Center
07:29PM 34.6272 -114.4989 58° Northeast 472 543 38,900  Descending Los Angeles Center
07:30PM 34.6939 -114.3672 58° Northeast 481 554 39,000 48 Climbing Los Angeles Center
07:31PM 34.7769 -114.2050 58° Northeast 475 547 39,000  Level Los Angeles Center
07:32PM 34.8444 -114.0689 59° Northeast 473 544 39,000  Level Los Angeles Center
07:33PM 34.9136 -113.9344 58° Northeast 472 543 39,000  Level Los Angeles Center
07:34PM 34.9767 -113.8072 59° Northeast 473 544 39,000  Level Los Angeles Center
07:35PM 35.0594 -113.6425 58° Northeast 476 548 39,000  Level Los Angeles Center
07:36PM 35.1278 -113.5047 59° Northeast 477 549 39,000  Level Los Angeles Center
07:37PM 35.1972 -113.3661 58° Northeast 480 552 39,000  Level Los Angeles Center
07:38PM 35.2717 -113.2161 59° Northeast 482 555 39,000  Level Los Angeles Center
07:39PM 35.3400 -113.0786 59° Northeast 477 549 39,000  Level Los Angeles Center
07:40PM 35.4050 -112.9442 59° Northeast 476 548 39,000  Level Los Angeles Center
07:41PM 35.4864 -112.7783 59° Northeast 475 547 39,000  Level Los Angeles Center
07:42PM 35.5542 -112.6372 59° Northeast 479 551 39,000  Level Los Angeles Center
07:43PM 35.6261 -112.4889 59° Northeast 485 558 39,000  Level Los Angeles Center
07:44PM 35.6944 -112.3475 59° Northeast 483 556 39,000  Level Los Angeles Center
07:45PM 35.7628 -112.2047 59° Northeast 485 558 39,000  Level Los Angeles Center
07:46PM 35.8306 -112.0622 60° Northeast 485 558 39,000 48 Level Los Angeles Center
07:47PM 35.8978 -111.9214 59° Northeast 482 555 39,100  Climbing Los Angeles Center
07:48PM 35.9756 -111.7572 60° Northeast 475 547 39,000 -95 Descending Los Angeles Center
07:49PM 36.0419 -111.6186 59° Northeast 473 544 38,900  Descending Denver Center
07:50PM 36.1072 -111.4789 60° Northeast 471 542 39,000 48 Climbing Denver Center
07:51PM 36.1850 -111.3119 60° Northeast 468 539 39,000  Level Denver Center
07:52PM 36.2511 -111.1719 60° Northeast 471 542 39,000  Level Denver Center
07:53PM 36.3156 -111.0331 60° Northeast 468 539 39,000  Level Denver Center
07:54PM 36.3800 -110.8919 60° Northeast 470 541 39,000  Level Denver Center
07:55PM 36.4450 -110.7517 60° Northeast 472 543 39,000  Level Denver Center
07:56PM 36.5106 -110.6100 60° Northeast 472 543 39,000  Level Denver Center
07:58PM 36.5864 -110.4406 61° Northeast 470 541 39,000  Level Denver Center
07:59PM 36.6503 -110.3017 60° Northeast 466 536 39,000  Level Denver Center
08:00PM 36.7142 -110.1611 60° Northeast 467 537 39,000 -48 Level Denver Center
08:01PM 36.7769 -110.0208 61° Northeast 465 535 38,900  Descending Denver Center
08:02PM 36.8481 -109.8617 61° Northeast 470 541 39,000 48 Climbing Denver Center
08:03PM 36.9092 -109.7233 61° Northeast 473 544 39,000 48 Level Denver Center
08:04PM 36.9825 -109.5569 61° Northeast 487 560 39,100  Climbing Denver Center
08:05PM 37.0444 -109.4181 61° Northeast 479 551 39,000 -48 Descending Denver Center
08:06PM 37.1031 -109.2853 61° Northeast 458 527 39,000  Level Denver Center
08:07PM 37.1714 -109.1286 61° Northeast 456 525 39,000  Level Denver Center
08:08PM 37.2297 -108.9956 61° Northeast 454 522 39,000  Level Denver Center
08:09PM 37.2983 -108.8397 61° Northeast 455 524 39,000 49 Level Denver Center
08:10PM 37.3558 -108.7039 62° Northeast 458 527 39,100  Climbing Denver Center
08:11PM 37.4242 -108.5464 61° Northeast 459 528 39,000 -48 Descending Denver Center
08:12PM 37.4822 -108.4094 62° Northeast 460 529 39,000  Level Denver Center
08:13PM 37.5489 -108.2531 62° Northeast 456 525 39,000  Level Denver Center
08:14PM 37.6056 -108.1181 62° Northeast 454 522 39,000  Level Denver Center
08:15PM 37.6711 -107.9622 62° Northeast 450 518 39,000 -387 Level Denver Center
08:16PM 37.7278 -107.8303 61° Northeast 449 517 38,200 -871 Descending Denver Center
08:17PM 37.7847 -107.6925 62° Northeast 457 526 37,200 -581 Descending Denver Center
08:18PM 37.8519 -107.5325 62° Northeast 461 531 37,000 -97 Descending Denver Center
08:19PM 37.9086 -107.3942 63° Northeast 462 532 37,000  Level Denver Center
08:20PM 37.9750 -107.2336 62° Northeast 460 529 37,000  Level Denver Center
08:21PM 38.0369 -107.0828 62° Northeast 465 535 37,000  Level Denver Center
08:22PM 38.0886 -106.9547 63° Northeast 460 529 37,000  Level Denver Center
08:23PM 38.1589 -106.7836 62° Northeast 461 531 37,000  Level Denver Center
08:24PM 38.2175 -106.6453 62° Northeast 462 532 37,000  Level Denver Center
08:25PM 38.3058 -106.5042 51° Northeast 459 528 37,000  Level Denver Center
08:26PM 38.3931 -106.4000 43° Northeast 460 529 37,000  Level Denver Center
08:27PM 38.4831 -106.2875 44° Northeast 454 522 37,000 -794 Level Denver Center
08:29PM 38.5797 -106.1678 44° Northeast 446 513 35,200 -2,118 Descending Denver Center
08:30PM 38.6797 -106.0411 45° Northeast 444 511 32,200 -2,903 Descending Denver Center
08:31PM 38.7825 -105.9119 44° Northeast 441 507 29,200 -2,390 Descending Denver Center
08:32PM 38.8667 -105.8042 45° Northeast 425 489 27,300 -2,000 Descending Denver Center
08:33PM 38.9456 -105.7047 44° Northeast 414 476 25,100 -2,129 Descending Denver Center
08:34PM 39.0206 -105.6075 45° Northeast 399 459 22,900 -2,226 Descending Denver Center
08:35PM 39.1075 -105.4967 45° Northeast 393 452 20,500 -1,935 Descending Denver Center
08:36PM 39.1869 -105.3983 44° Northeast 385 443 18,900 -1,317 Descending Denver Center
08:37PM 39.2550 -105.3050 47° Northeast 363 418 17,800 -1,073 Descending Denver Center
08:38PM 39.3069 -105.2014 57° Northeast 328 377 16,700 -1,016 Descending Denver Center
08:39PM 39.3703 -105.1250 43° Northeast 308 354 15,700 -726 Descending Denver Center
08:40PM 39.4011 -105.0350 66° East 286 329 15,200 -537 Descending Denver Center
08:41PM 39.4050 -104.9344 87° East 261 300 14,600 -780 Descending Denver Center
08:42PM 39.4086 -104.8472 87° East 248 285 13,600 -1,016 Descending Denver Center
08:43PM 39.4553 -104.7858 45° Northeast 234 269 12,500 -1,113 Descending Denver Center
08:44PM 39.5086 -104.7478 29° Northeast 223 257 11,300 -1,073 Descending Denver Center
08:45PM 39.5586 -104.7106 30° Northeast 210 242 10,300 -732 Descending Denver Center
08:46PM 39.6086 -104.6767 28° Northeast 191 220 9,800 -484 Descending Denver Center